Eureka, NV

2:02 PM PDT on September 20, 2017 (GMT -0700)
Eureka

Weather History for KP68 - March, 2014

Change the Weather History Date:

Tuesday, March 25, 2014

  Actual Average Record
Temperature  
Mean Temperature 45 °F 39 °F  
Max Temperature 69 °F 53 °F 69 °F (2014)
Min Temperature 21 °F 25 °F 0 °F (1995)
Degree Days  
Heating Degree Days 20 26  
Month to date heating degree days 621 719  
Since 1 July heating degree days 5425 6004  
Cooling Degree Days 0 0  
Month to date cooling degree days 0 0  
Year to date cooling degree days 0 0  
Moisture  
Dew Point 6 °F    
Average Humidity 24    
Maximum Humidity 42    
Minimum Humidity 6    
Precipitation  
Precipitation 0.00 in 0.03 in 0.43 in (2017)
Month to date precipitation 0.10 0.73  
Year to date precipitation 1.84 2.33  
Sea Level Pressure  
Sea Level Pressure 29.79 in    
Wind  
Wind Speed 10 mph (SW)    
Max Wind Speed 35 mph    
Max Gust Speed 43 mph    
T = Trace of Precipitation, MM = Missing Value Source: NWS Daily Summary

Daily Weather History Graph

Daily Weather History Graph

Search for Another Location

Airport or City:

Trip Planner

Search our weather history database for the weather conditions in past years. The results will help you decide how hot, cold, wet, or windy it might be!

Date:

Astronomy

Mar. 25, 2014 Rise Set
Actual Time 6:39 AM PDT 7:01 PM PDT
Civil Twilight 6:12 AM PDT 7:27 PM PDT
Nautical Twilight 5:40 AM PDT 7:59 PM PDT
Astronomical Twilight 5:08 AM PDT 8:31 PM PDT
Moon 3:03 AM PDT (3/25) 1:37 PM PDT (3/25)
Length of Visible Light 13h 15m
Length of Day
12h 21m
Waning Crescent, 31% of the Moon is Illuminated
Mar 25
Waning Crescent
Mar 30
New
Apr 7
First Quarter
Apr 15
Full
Apr 22
Last Quarter

Hourly Weather History & Observations

Time (PDT) Temp. Windchill Dew Point Humidity Pressure Visibility Wind Dir Wind Speed Gust Speed Precip Events Conditions
12:53 AM 28.9 °F 20.4 °F 8.1 °F 41% 30.04 in - SSW 9.2 mph - N/A   Unknown
1:53 AM 34.0 °F 26.0 °F 7.0 °F 32% 30.00 in - SSW 10.4 mph - N/A   Unknown
2:53 AM 30.0 °F 23.2 °F 6.1 °F 36% 29.98 in - SSW 6.9 mph - N/A   Unknown
3:53 AM 28.9 °F 20.4 °F 6.1 °F 38% 29.97 in - SSW 9.2 mph - N/A   Unknown
4:53 AM 28.9 °F 20.4 °F 5.0 °F 36% 29.94 in - South 9.2 mph - N/A   Unknown
5:53 AM 28.9 °F 25.2 °F 5.0 °F 36% 29.94 in - South 3.5 mph - N/A   Unknown
6:53 AM 28.9 °F 22.8 °F 5.0 °F 36% 29.97 in - WSW 5.8 mph - N/A   Unknown
7:53 AM 30.9 °F - 7.0 °F 37% 29.99 in - Calm Calm - N/A   Unknown
8:53 AM 44.1 °F 42.5 °F 7.0 °F 22% 29.96 in - WNW 3.5 mph - N/A   Unknown
9:53 AM 53.1 °F - 7.0 °F 16% 29.90 in - Calm Calm - N/A   Unknown
10:53 AM 62.1 °F - 1.0 °F 9% 29.83 in - South 17.3 mph 24.2 mph N/A   Unknown
11:53 AM 64.0 °F - 1.0 °F 8% 29.79 in - South 19.6 mph 24.2 mph N/A   Unknown
12:53 PM 66.0 °F - 1.0 °F 8% 29.74 in - SSW 16.1 mph 27.6 mph N/A   Unknown
1:08 PM 66.9 °F - 1.0 °F 7% 29.85 in - SW 18.4 mph 31.1 mph N/A   Unknown
1:53 PM 66.9 °F - -2.0 °F 6% 29.68 in - South 17.3 mph 28.8 mph N/A   Unknown
2:53 PM 68.0 °F - 1.0 °F 7% 29.66 in - SSW 20.7 mph 32.2 mph N/A   Unknown
3:53 PM 66.0 °F - -2.0 °F 7% 29.63 in - SW 20.7 mph 35.7 mph N/A   Unknown
4:53 PM 63.0 °F - -0.9 °F 8% 29.62 in - SW 18.4 mph 26.5 mph N/A   Unknown
5:53 PM 61.0 °F - -2.9 °F 8% 29.61 in - WSW 15.0 mph 23.0 mph N/A   Unknown
6:53 PM 57.0 °F - -0.9 °F 9% 29.60 in - WSW 8.1 mph - N/A   Unknown
7:53 PM 48.9 °F - 9.0 °F 20% 29.63 in - North 8.1 mph - N/A   Unknown
8:53 PM 46.9 °F - 16.0 °F 29% 29.62 in - NW 6.9 mph - N/A   Unknown
9:53 PM 48.9 °F - 18.0 °F 29% 29.59 in - NNW 9.2 mph - N/A   Unknown
10:53 PM 46.0 °F 41.9 °F 18.0 °F 33% 29.56 in - NNE 8.1 mph - N/A   Unknown
11:53 PM 45.0 °F 42.6 °F 19.9 °F 37% 29.54 in - NNW 4.6 mph - N/A   Unknown